Find Starlink 32090

NORAD ID: 59691 Int'l Des: 2024-086 Owner: SPXS Country: US Constellation: starlink operational
LEOCIRCULAR

实时位置

正在加载3D地球...

关于 Starlink 32090

正在加载描述...

即将过境

Passes for default location (London). Set your location on the main map for personalized predictions.

高度历史

Loading altitude history...

两行轨道根数

1 59691U 24086K 26126.27130204 -.00005405 00000-0 -18711-3 0 9993
2 59691 43.0008 98.5790 0001389 276.2406 83.8287 15.27565147112871
Epoch: May 6, 2026 • Age: 5 hours

当前状态

高度 486.9 km
速度 7.63 km/s
星下点 41.86°N, 165.2°E
发射日期 May 8, 2024
运行时间 1.9 years
类型 internet

技术详情

分类 Payload
质量 730.00 kg
干质量 700.00 kg
总质量 730.00 kg
长度 0.30 m
直径 4.10 m
跨度 29.00 m
形状 Box + pan
制造商 SPXS
平台类型 Starlink V2M
阶段状态 In Orbit
所有者/国家 SPXS/US

Most Searched